User: anonymous   Login
Location: Unspecified
(0.0000°N, 0.0000°E)
Time: 19:34:47
(UTC+01:00)
Language:

Delta 2 Rocket - Orbit

View from above orbital plane
View from above orbital plane
View from above satellite
View from above satellite

Ground track
Ground track

The orbit data is extracted from the following two-line orbital elements,

1 20453U 90008B   14330.29360117  .00016964  00000-0  10562-2 0  1388
2 20453 035.6279 295.7815 0315962 350.8758 008.6306 14.75770610309718
Epoch (UTC): 26 November 2014 07:02:47
Eccentricity: 0.0315962
inclination: 35.6279°
perigee height: 421 km
apogee height: 864 km
right ascension of ascending node: 295.7815°
argument of perigee: 350.8758°
revolutions per day: 14.75770610
mean anomaly at epoch: 8.6306°
orbit number at epoch: 30971

The dashed part of the orbit path shows where the satellite is in the earth's shadow,  

DLR